Location: Cold Norton
(51.6667°N, 0.6667°E)
Time: 16:52:09
(UTC+00:00)

Cosmos 1140 Rocket - Pass Details

Date: 18 November 2025
Orbit: 740 x 761 km, 74.1° (Epoch: 09 December)

Event Time Altitude Azimuth Distance (km) Brightness Sun altitude
Rises 16:52:17 0° 195° (SSW) 3,197 7.3 -7.6°
Reaches altitude 10° 16:54:38 10° 193° (SSW) 2,273 6.5 -8.0°
Maximum altitude 16:59:45 70° 111° (ESE) 801 3.5 -8.7°
Drops below altitude 10° 17:04:53 10° 29° (NNE) 2,276 5.5 -9.5°
Enters shadow 17:06:30 - 27° (NNE) 2,903 6.1 -9.7°
